WJA506 CYEG-CYYJ

Flight info

Callsign WJA506
Flight time 1h 21m
Altitude 38000
Route ANDIE Q860 MERYT DCT BOOTH APASS8
Aircraft B738/M-SDE2E3FGHIRWXY/LB1

Departure

Time 2026-05-06 01:40
Airport Edmonton International Airport (CYEG)

Arrival

Time 2026-05-06 03:01
Airport Victoria International Airport (CYYJ)
Time Latitude Longitude Altitude Speed Heading
2026-05-06 01:06 53.30491 -113.58297 2341 ft 0 kts 46°
2026-05-06 01:33 53.30476 -113.58323 2341 ft 4 kts 46°
2026-05-06 01:33 53.30457 -113.58354 2341 ft 4 kts 37°
2026-05-06 01:33 53.30435 -113.58374 2342 ft 4 kts
2026-05-06 01:34 53.30413 -113.58368 2342 ft 2 kts 316°
2026-05-06 01:34 53.30412 -113.58367 2342 ft 1 kts 315°
2026-05-06 01:36 53.30414 -113.58369 2342 ft 1 kts 315°
2026-05-06 01:36 53.30428 -113.58393 2342 ft 5 kts 315°
2026-05-06 01:36 53.30465 -113.58454 2341 ft 9 kts 315°
2026-05-06 01:37 53.30516 -113.58540 2340 ft 12 kts 315°
2026-05-06 01:37 53.30569 -113.58657 2338 ft 13 kts 290°
2026-05-06 01:37 53.30559 -113.58802 2338 ft 13 kts 240°
2026-05-06 01:37 53.30531 -113.58930 2338 ft 13 kts 296°
2026-05-06 01:38 53.30596 -113.59043 2339 ft 15 kts 315°
2026-05-06 01:38 53.30674 -113.59170 2335 ft 16 kts 315°
2026-05-06 01:38 53.30752 -113.59300 2332 ft 15 kts 315°
2026-05-06 01:38 53.30828 -113.59422 2331 ft 15 kts 316°
2026-05-06 01:39 53.30890 -113.59553 2331 ft 14 kts 307°
2026-05-06 01:39 53.30953 -113.59551 2333 ft 0 kts 37°
2026-05-06 01:39 53.31044 -113.59440 2333 ft 54 kts 35°
2026-05-06 01:39 53.31604 -113.58789 2337 ft 139 kts 35°
2026-05-06 01:40 53.32561 -113.57702 2592 ft 187 kts 34°
2026-05-06 01:40 53.33704 -113.56451 3521 ft 205 kts 36°
2026-05-06 01:40 53.34812 -113.55138 4819 ft 195 kts 37°
2026-05-06 01:40 53.35979 -113.53741 5285 ft 219 kts 36°
2026-05-06 01:41 53.37281 -113.52186 5655 ft 237 kts 36°
2026-05-06 01:41 53.38687 -113.50601 6061 ft 255 kts 26°
2026-05-06 01:41 53.40459 -113.50078 6599 ft 268 kts 351°
2026-05-06 01:41 53.42094 -113.51424 7663 ft 264 kts 317°
2026-05-06 01:42 53.43042 -113.54072 8536 ft 273 kts 285°
2026-05-06 01:42 53.43074 -113.57282 9455 ft 281 kts 261°
2026-05-06 01:42 53.42242 -113.60247 10269 ft 293 kts 236°
2026-05-06 01:42 53.40884 -113.62974 10593 ft 319 kts 231°
2026-05-06 01:43 53.39328 -113.65810 10966 ft 338 kts 230°
2026-05-06 01:43 53.37692 -113.68713 11657 ft 346 kts 230°
2026-05-06 01:43 53.36026 -113.71666 12409 ft 352 kts 231°
2026-05-06 01:43 53.34332 -113.74688 13165 ft 359 kts 232°
2026-05-06 01:44 53.32615 -113.77773 13914 ft 365 kts 232°
2026-05-06 01:44 53.30876 -113.80913 14580 ft 371 kts 233°
2026-05-06 01:44 53.29113 -113.84103 15288 ft 375 kts 233°
2026-05-06 01:44 53.27331 -113.87330 15980 ft 380 kts 233°
2026-05-06 01:45 53.25525 -113.90600 16662 ft 385 kts 233°
2026-05-06 01:45 53.23696 -113.93910 17344 ft 390 kts 233°
2026-05-06 01:45 53.21848 -113.97249 18040 ft 394 kts 233°
2026-05-06 01:45 53.19999 -114.00588 18678 ft 399 kts 233°
2026-05-06 01:46 53.18104 -114.04002 19284 ft 403 kts 233°
2026-05-06 01:46 53.16188 -114.07449 19930 ft 405 kts 233°
2026-05-06 01:46 53.14262 -114.10909 20563 ft 408 kts 233°
2026-05-06 01:46 53.12320 -114.14394 21153 ft 412 kts 233°
2026-05-06 01:47 53.10359 -114.17909 21751 ft 416 kts 233°
2026-05-06 01:47 53.08382 -114.21448 22321 ft 419 kts 233°
2026-05-06 01:47 53.06385 -114.25015 22880 ft 423 kts 234°
2026-05-06 01:47 53.04369 -114.28613 23449 ft 427 kts 234°
2026-05-06 01:48 53.02339 -114.32233 23948 ft 430 kts 234°
2026-05-06 01:48 53.00287 -114.35884 24371 ft 434 kts 234°
2026-05-06 01:48 52.98293 -114.39569 24817 ft 433 kts 239°
2026-05-06 01:48 52.96534 -114.43615 25243 ft 432 kts 243°
2026-05-06 01:49 52.94850 -114.47769 25674 ft 434 kts 244°
2026-05-06 01:49 52.93180 -114.51959 26102 ft 437 kts 245°
2026-05-06 01:49 52.91491 -114.56196 26517 ft 440 kts 245°
2026-05-06 01:49 52.89789 -114.60434 26929 ft 444 kts 245°
2026-05-06 01:50 52.88059 -114.64704 27331 ft 447 kts 245°
2026-05-06 01:50 52.86310 -114.68986 27725 ft 450 kts 244°
2026-05-06 01:50 52.84544 -114.73287 28106 ft 454 kts 244°
2026-05-06 01:50 52.82783 -114.77559 28480 ft 457 kts 244°
2026-05-06 01:51 52.80985 -114.81906 28865 ft 459 kts 245°
2026-05-06 01:51 52.79174 -114.86278 29234 ft 462 kts 245°
2026-05-06 01:51 52.77351 -114.90670 29597 ft 465 kts 245°
2026-05-06 01:51 52.75518 -114.95082 29943 ft 468 kts 245°
2026-05-06 01:52 52.73669 -114.99524 30268 ft 470 kts 245°
2026-05-06 01:52 52.71812 -115.03978 30559 ft 472 kts 245°
2026-05-06 01:52 52.69943 -115.08454 30860 ft 474 kts 245°
2026-05-06 01:52 52.68696 -115.11432 31058 ft 475 kts 245°
2026-05-06 01:53 52.66814 -115.15926 31335 ft 477 kts 245°
2026-05-06 01:53 52.64924 -115.20429 31603 ft 479 kts 245°
2026-05-06 01:53 52.63026 -115.24942 31947 ft 479 kts 245°
2026-05-06 01:53 52.61134 -115.29431 32368 ft 477 kts 245°
2026-05-06 01:54 52.59244 -115.33904 32768 ft 475 kts 245°
2026-05-06 01:54 52.57355 -115.38370 33120 ft 475 kts 245°
2026-05-06 01:54 52.55470 -115.42823 33474 ft 474 kts 245°
2026-05-06 01:54 52.53583 -115.47274 33828 ft 474 kts 245°
2026-05-06 01:55 52.51701 -115.51706 34179 ft 473 kts 245°
2026-05-06 01:55 52.49822 -115.56122 34486 ft 472 kts 245°
2026-05-06 01:55 52.47943 -115.60532 34763 ft 471 kts 245°
2026-05-06 01:55 52.46064 -115.64933 35029 ft 471 kts 245°
2026-05-06 01:56 52.44188 -115.69321 35327 ft 470 kts 245°
2026-05-06 01:56 52.42335 -115.73647 35610 ft 469 kts 245°
2026-05-06 01:56 52.40460 -115.78018 35896 ft 468 kts 245°
2026-05-06 01:56 52.38586 -115.82374 36193 ft 467 kts 244°
2026-05-06 01:57 52.36715 -115.86720 36473 ft 466 kts 244°
2026-05-06 01:57 52.34848 -115.91047 36795 ft 464 kts 244°
2026-05-06 01:57 52.32983 -115.95362 37029 ft 464 kts 244°
2026-05-06 01:57 52.31121 -115.99669 37273 ft 464 kts 244°
2026-05-06 01:58 52.29257 -116.03970 37553 ft 462 kts 244°
2026-05-06 01:58 52.27398 -116.08250 37819 ft 461 kts 244°
2026-05-06 01:58 52.25543 -116.12514 38044 ft 459 kts 244°
2026-05-06 01:58 52.23693 -116.16763 38064 ft 461 kts 244°
2026-05-06 01:59 52.19957 -116.25326 38079 ft 464 kts 244°
2026-05-06 01:59 52.16223 -116.33835 38071 ft 458 kts 244°
2026-05-06 02:00 52.12518 -116.42257 38056 ft 455 kts 244°
2026-05-06 02:00 52.08864 -116.50547 38114 ft 453 kts 244°
2026-05-06 02:01 52.05194 -116.58849 38067 ft 451 kts 243°
2026-05-06 02:01 52.01823 -116.66451 38020 ft 459 kts 243°
2026-05-06 02:02 51.98103 -116.74832 38038 ft 455 kts 243°
2026-05-06 02:02 51.94386 -116.83139 38014 ft 452 kts 243°
2026-05-06 02:03 51.90724 -116.91285 38106 ft 452 kts 243°
2026-05-06 02:03 51.86984 -116.99624 38077 ft 462 kts 243°
2026-05-06 02:04 51.83186 -117.08043 38068 ft 463 kts 242°
2026-05-06 02:04 51.79371 -117.16464 38019 ft 464 kts 242°
2026-05-06 02:05 51.75564 -117.24851 38046 ft 464 kts 242°
2026-05-06 02:05 51.71753 -117.33222 38040 ft 461 kts 242°
2026-05-06 02:06 51.67946 -117.41550 38020 ft 460 kts 242°
2026-05-06 02:06 51.64191 -117.49729 38015 ft 454 kts 242°
2026-05-06 02:07 51.60441 -117.57883 38026 ft 451 kts 242°
2026-05-06 02:07 51.56701 -117.66003 38046 ft 451 kts 242°
2026-05-06 02:08 51.52961 -117.74097 38031 ft 450 kts 242°
2026-05-06 02:08 51.49216 -117.82175 38003 ft 451 kts 242°
2026-05-06 02:09 51.45487 -117.90191 37988 ft 451 kts 241°
2026-05-06 02:09 51.41731 -117.98240 38020 ft 452 kts 241°
2026-05-06 02:10 51.39844 -118.02273 37890 ft 453 kts 241°
2026-05-06 02:10 51.37952 -118.06310 38026 ft 452 kts 241°
2026-05-06 02:10 51.34136 -118.14445 37960 ft 459 kts 240°
2026-05-06 02:11 51.30321 -118.22537 37980 ft 458 kts 241°
2026-05-06 02:11 51.26488 -118.30636 37952 ft 455 kts 240°
2026-05-06 02:12 51.22668 -118.38689 37920 ft 455 kts 240°
2026-05-06 02:12 51.20756 -118.42713 38084 ft 454 kts 241°
2026-05-06 02:12 51.18836 -118.46752 37858 ft 459 kts 240°
2026-05-06 02:13 51.15020 -118.54750 37968 ft 449 kts 240°
2026-05-06 02:13 51.11245 -118.62638 37927 ft 450 kts 240°
2026-05-06 02:14 51.07449 -118.70550 37903 ft 449 kts 239°
2026-05-06 02:14 51.03670 -118.78392 37899 ft 446 kts 240°
2026-05-06 02:15 50.99892 -118.86218 37938 ft 447 kts 240°
2026-05-06 02:15 50.96071 -118.94123 37922 ft 454 kts 240°
2026-05-06 02:16 50.92227 -119.02039 37906 ft 457 kts 239°
2026-05-06 02:16 50.88327 -119.10036 37901 ft 458 kts 239°
2026-05-06 02:17 50.84439 -119.17978 37900 ft 451 kts 239°
2026-05-06 02:17 50.80636 -119.25725 37893 ft 447 kts 239°
2026-05-06 02:18 50.76829 -119.33469 37893 ft 445 kts 239°
2026-05-06 02:18 50.73023 -119.41182 37902 ft 446 kts 239°
2026-05-06 02:19 50.69173 -119.48985 37911 ft 454 kts 239°
2026-05-06 02:19 50.65275 -119.56849 37885 ft 456 kts 239°
2026-05-06 02:20 50.59392 -119.68650 37884 ft 456 kts 238°
2026-05-06 02:21 50.55501 -119.76428 37877 ft 454 kts 238°
2026-05-06 02:21 50.51596 -119.84214 37887 ft 452 kts 238°
2026-05-06 02:22 50.47698 -119.91965 37867 ft 451 kts 238°
2026-05-06 02:22 50.43807 -119.99680 37870 ft 449 kts 238°
2026-05-06 02:23 50.39926 -120.07351 37857 ft 448 kts 238°
2026-05-06 02:23 50.36051 -120.14988 37850 ft 447 kts 238°
2026-05-06 02:24 50.32182 -120.22592 37868 ft 446 kts 238°
2026-05-06 02:24 50.28341 -120.30120 37866 ft 446 kts 237°
2026-05-06 02:25 50.24470 -120.37685 37868 ft 445 kts 237°
2026-05-06 02:25 50.20601 -120.45221 37867 ft 444 kts 237°
2026-05-06 02:26 50.16734 -120.52734 37858 ft 444 kts 237°
2026-05-06 02:26 50.12866 -120.60228 37860 ft 443 kts 237°
2026-05-06 02:27 50.08996 -120.67703 37854 ft 442 kts 237°
2026-05-06 02:27 50.05122 -120.75168 37849 ft 443 kts 237°
2026-05-06 02:28 50.01239 -120.82628 37859 ft 444 kts 237°
2026-05-06 02:28 49.97348 -120.90085 37847 ft 445 kts 236°
2026-05-06 02:28 49.95377 -120.93854 37358 ft 451 kts 236°
2026-05-06 02:29 49.93496 -120.97689 37008 ft 441 kts 243°
2026-05-06 02:29 49.91924 -121.01664 36605 ft 434 kts 245°
2026-05-06 02:29 49.90418 -121.05679 36228 ft 429 kts 246°
2026-05-06 02:29 49.88934 -121.09686 35847 ft 425 kts 246°
2026-05-06 02:30 49.87468 -121.13630 35452 ft 421 kts 246°
2026-05-06 02:30 49.85995 -121.17559 35083 ft 418 kts 245°
2026-05-06 02:30 49.84527 -121.21436 34698 ft 416 kts 245°
2026-05-06 02:30 49.83058 -121.25291 34316 ft 414 kts 245°
2026-05-06 02:31 49.81613 -121.29066 33935 ft 411 kts 245°
2026-05-06 02:31 49.80153 -121.32869 33514 ft 408 kts 245°
2026-05-06 02:31 49.78703 -121.36636 33112 ft 405 kts 245°
2026-05-06 02:31 49.77265 -121.40365 32710 ft 401 kts 245°
2026-05-06 02:32 49.75841 -121.44049 32393 ft 397 kts 245°
2026-05-06 02:32 49.74430 -121.47699 31989 ft 394 kts 245°
2026-05-06 02:32 49.73024 -121.51335 31643 ft 391 kts 245°
2026-05-06 02:32 49.71626 -121.54947 31283 ft 389 kts 245°
2026-05-06 02:33 49.70241 -121.58518 30934 ft 386 kts 245°
2026-05-06 02:33 49.69326 -121.60877 30705 ft 385 kts 245°
2026-05-06 02:33 49.66133 -121.69084 29880 ft 382 kts 244°
2026-05-06 02:34 49.64767 -121.72588 29472 ft 380 kts 244°
2026-05-06 02:34 49.63403 -121.76076 29073 ft 379 kts 244°
2026-05-06 02:34 49.62050 -121.79535 28742 ft 375 kts 244°
2026-05-06 02:34 49.60707 -121.82966 28344 ft 372 kts 244°
2026-05-06 02:35 49.59370 -121.86379 27987 ft 369 kts 244°
2026-05-06 02:35 49.58048 -121.89745 27625 ft 366 kts 244°
2026-05-06 02:35 49.56735 -121.93090 27276 ft 363 kts 244°
2026-05-06 02:35 49.55449 -121.96361 26930 ft 360 kts 244°
2026-05-06 02:36 49.54149 -121.99661 26579 ft 358 kts 244°
2026-05-06 02:36 49.52859 -122.02930 26178 ft 355 kts 244°
2026-05-06 02:36 49.51590 -122.06132 25949 ft 346 kts 244°
2026-05-06 02:36 49.50344 -122.09265 25680 ft 342 kts 244°
2026-05-06 02:37 49.49105 -122.12379 25364 ft 341 kts 244°
2026-05-06 02:37 49.47871 -122.15482 25026 ft 340 kts 244°
2026-05-06 02:37 49.46634 -122.18588 24690 ft 340 kts 244°
2026-05-06 02:37 49.45399 -122.21687 24359 ft 339 kts 244°
2026-05-06 02:38 49.44168 -122.24769 24023 ft 338 kts 244°
2026-05-06 02:38 49.42939 -122.27843 23694 ft 337 kts 244°
2026-05-06 02:38 49.41726 -122.30872 23302 ft 336 kts 243°
2026-05-06 02:38 49.40502 -122.33923 22936 ft 334 kts 243°
2026-05-06 02:39 49.39287 -122.36955 22671 ft 332 kts 243°
2026-05-06 02:39 49.38068 -122.40013 22438 ft 346 kts 243°
2026-05-06 02:39 49.36769 -122.43288 22187 ft 372 kts 243°
2026-05-06 02:39 49.35378 -122.46784 21972 ft 395 kts 242°
2026-05-06 02:40 49.33940 -122.50374 21560 ft 393 kts 242°
2026-05-06 02:40 49.32510 -122.53926 21102 ft 389 kts 242°
2026-05-06 02:40 49.31621 -122.56135 20776 ft 387 kts 242°
2026-05-06 02:40 49.29708 -122.60889 20124 ft 383 kts 242°
2026-05-06 02:41 49.28316 -122.64348 19647 ft 380 kts 242°
2026-05-06 02:41 49.26930 -122.67785 19165 ft 378 kts 242°
2026-05-06 02:41 49.25552 -122.71191 18706 ft 375 kts 242°
2026-05-06 02:41 49.24182 -122.74573 18224 ft 373 kts 242°
2026-05-06 02:42 49.23260 -122.76849 17856 ft 371 kts 242°
2026-05-06 02:42 49.21919 -122.80154 17351 ft 369 kts 241°
2026-05-06 02:42 49.20568 -122.83482 16862 ft 367 kts 241°
2026-05-06 02:42 49.19223 -122.86791 16371 ft 364 kts 241°
2026-05-06 02:43 49.17890 -122.90069 15908 ft 362 kts 241°
2026-05-06 02:43 49.16561 -122.93330 15438 ft 360 kts 241°
2026-05-06 02:43 49.15239 -122.96572 14971 ft 358 kts 240°
2026-05-06 02:43 49.13923 -122.99795 14508 ft 357 kts 240°
2026-05-06 02:44 49.12616 -123.02994 14259 ft 348 kts 240°
2026-05-06 02:44 49.11345 -123.06098 14074 ft 339 kts 240°
2026-05-06 02:44 49.10113 -123.09102 13923 ft 329 kts 240°
2026-05-06 02:44 49.08928 -123.11986 13779 ft 320 kts 240°
2026-05-06 02:45 49.07581 -123.14638 13588 ft 316 kts 225°
2026-05-06 02:45 49.05718 -123.16427 13271 ft 317 kts 207°
2026-05-06 02:45 49.03718 -123.17821 12944 ft 315 kts 206°
2026-05-06 02:45 49.01716 -123.19169 12606 ft 313 kts 206°
2026-05-06 02:46 48.99720 -123.20514 12280 ft 312 kts 206°
2026-05-06 02:46 48.97747 -123.21856 11953 ft 310 kts 206°
2026-05-06 02:46 48.95785 -123.23202 11629 ft 309 kts 206°
2026-05-06 02:46 48.93829 -123.24550 11302 ft 307 kts 206°
2026-05-06 02:47 48.91885 -123.25893 10976 ft 306 kts 206°
2026-05-06 02:47 48.89951 -123.27228 10648 ft 305 kts 206°
2026-05-06 02:47 48.88049 -123.28541 10330 ft 304 kts 206°
2026-05-06 02:47 48.86212 -123.30058 10134 ft 296 kts 221°
2026-05-06 02:48 48.84898 -123.32375 9971 ft 286 kts 231°
2026-05-06 02:48 48.83445 -123.34487 9565 ft 290 kts 221°
2026-05-06 02:48 48.81907 -123.36414 9414 ft 280 kts 221°
2026-05-06 02:48 48.80447 -123.38266 9311 ft 267 kts 221°
2026-05-06 02:49 48.79067 -123.40053 9209 ft 254 kts 222°
2026-05-06 02:49 48.77760 -123.41762 9113 ft 242 kts 222°
2026-05-06 02:49 48.76516 -123.43397 9018 ft 231 kts 223°
2026-05-06 02:49 48.75445 -123.45098 8750 ft 224 kts 244°
2026-05-06 02:50 48.75099 -123.47335 8408 ft 219 kts 275°
2026-05-06 02:50 48.75375 -123.49544 8278 ft 207 kts 287°
2026-05-06 02:50 48.75774 -123.51592 8133 ft 199 kts 288°
2026-05-06 02:50 48.76171 -123.53591 7857 ft 196 kts 288°
2026-05-06 02:51 48.76544 -123.55504 7738 ft 185 kts 287°
2026-05-06 02:51 48.76900 -123.57360 7464 ft 183 kts 287°
2026-05-06 02:51 48.77255 -123.59221 7126 ft 184 kts 287°
2026-05-06 02:51 48.77607 -123.61075 6823 ft 182 kts 287°
2026-05-06 02:52 48.77956 -123.62923 6520 ft 182 kts 287°
2026-05-06 02:52 48.78304 -123.64762 6226 ft 180 kts 287°
2026-05-06 02:52 48.78648 -123.66589 5905 ft 180 kts 287°
2026-05-06 02:52 48.78990 -123.68410 5596 ft 179 kts 287°
2026-05-06 02:53 48.79330 -123.70219 5286 ft 178 kts 287°
2026-05-06 02:53 48.79667 -123.72016 4994 ft 176 kts 287°
2026-05-06 02:53 48.79997 -123.73777 4698 ft 175 kts 287°
2026-05-06 02:53 48.80080 -123.75593 4352 ft 177 kts 250°
2026-05-06 02:54 48.79201 -123.76869 4330 ft 186 kts 201°
2026-05-06 02:54 48.77941 -123.77334 4315 ft 186 kts 194°
2026-05-06 02:54 48.76662 -123.77582 4288 ft 183 kts 181°
2026-05-06 02:54 48.75436 -123.77392 4298 ft 175 kts 169°
2026-05-06 02:55 48.74258 -123.76817 4309 ft 181 kts 155°
2026-05-06 02:55 48.73208 -123.75811 4308 ft 175 kts 141°
2026-05-06 02:55 48.72390 -123.74595 4308 ft 159 kts 130°
2026-05-06 02:55 48.71727 -123.73265 4099 ft 156 kts 123°
2026-05-06 02:56 48.71146 -123.71895 3916 ft 154 kts 122°
2026-05-06 02:56 48.70643 -123.70503 3707 ft 151 kts 116°
2026-05-06 02:56 48.70221 -123.69051 3507 ft 150 kts 115°
2026-05-06 02:56 48.69808 -123.67585 3331 ft 153 kts 112°
2026-05-06 02:57 48.69445 -123.66061 3093 ft 152 kts 111°
2026-05-06 02:57 48.69120 -123.64549 2899 ft 152 kts 106°
2026-05-06 02:57 48.68831 -123.63024 2695 ft 150 kts 107°
2026-05-06 02:57 48.68542 -123.61514 2496 ft 148 kts 107°
2026-05-06 02:58 48.68256 -123.60025 2311 ft 147 kts 107°
2026-05-06 02:58 48.67967 -123.58520 2097 ft 149 kts 107°
2026-05-06 02:58 48.67681 -123.57027 1892 ft 146 kts 108°
2026-05-06 02:58 48.67396 -123.55543 1699 ft 147 kts 108°
2026-05-06 02:59 48.67116 -123.54075 1467 ft 142 kts 107°
2026-05-06 02:59 48.66842 -123.52644 1292 ft 141 kts 107°
2026-05-06 02:59 48.66570 -123.51223 1088 ft 139 kts 107°
2026-05-06 02:59 48.66310 -123.49860 900 ft 135 kts 107°
2026-05-06 03:00 48.66046 -123.48486 721 ft 133 kts 107°
2026-05-06 03:00 48.65794 -123.47167 589 ft 132 kts 106°
2026-05-06 03:00 48.65535 -123.45814 378 ft 134 kts 105°
2026-05-06 03:00 48.65287 -123.44477 207 ft 131 kts 105°
2026-05-06 03:01 48.65037 -123.43164 64 ft 123 kts 105°
2026-05-06 03:01 48.64833 -123.42098 61 ft 84 kts 106°
2026-05-06 03:01 48.64748 -123.41717 61 ft 15 kts 140°
2026-05-06 03:01 48.64661 -123.41753 64 ft 14 kts 245°
2026-05-06 03:02 48.64675 -123.41897 56 ft 14 kts 287°
2026-05-06 03:02 48.64701 -123.42032 56 ft 13 kts 287°
2026-05-06 03:02 48.64704 -123.42162 62 ft 13 kts 236°
2026-05-06 03:02 48.64637 -123.42244 60 ft 12 kts 206°